THY1SZ EDDB-LTFM

Flight info

Callsign THY1SZ
Flight time N/A
Altitude 41000
Route ARSAP4B ARSAP Y210 OLUMA T710 VAGON DCT KELEL DCT EXIDA DCT KEKED DCT TISAD DCT RONBU DCT BUVAK DCT RIXEN
Aircraft A359/H-SDE2E3GHIJ3J4J5LM1ORWXY/LB1D1

Departure

Time 2026-02-20 05:53
Airport Berlin Brandenburg Airport (EDDB)

Arrival

Time N/A
Airport İstanbul Airport (LTFM)
Time Latitude Longitude Altitude Speed Heading
2026-02-20 04:30 52.36133 13.50731 160 ft 0 kts 69°
2026-02-20 04:36 52.36303 13.50174 156 ft 0 kts 249°
2026-02-20 05:42 52.36303 13.50176 155 ft 1 kts 249°
2026-02-20 05:42 52.36309 13.50199 155 ft 3 kts 249°
2026-02-20 05:43 52.36316 13.50230 154 ft 3 kts 249°
2026-02-20 05:43 52.36323 13.50259 154 ft 3 kts 254°
2026-02-20 05:43 52.36327 13.50286 155 ft 3 kts 277°
2026-02-20 05:44 52.36313 13.50325 155 ft 3 kts 335°
2026-02-20 05:44 52.36296 13.50337 155 ft 2 kts 339°
2026-02-20 05:44 52.36294 13.50338 155 ft 2 kts 339°
2026-02-20 05:45 52.36296 13.50337 155 ft 0 kts 338°
2026-02-20 05:47 52.36297 13.50336 155 ft 0 kts 338°
2026-02-20 05:47 52.36322 13.50320 155 ft 8 kts 338°
2026-02-20 05:47 52.36397 13.50272 155 ft 15 kts 339°
2026-02-20 05:48 52.36518 13.50195 155 ft 20 kts 339°
2026-02-20 05:48 52.36610 13.50139 155 ft 15 kts 339°
2026-02-20 05:48 52.36715 13.50073 155 ft 8 kts 339°
2026-02-20 05:48 52.36774 13.50000 154 ft 14 kts 293°
2026-02-20 05:49 52.36760 13.49865 153 ft 2 kts 250°
2026-02-20 05:49 52.36745 13.49796 153 ft 11 kts 250°
2026-02-20 05:49 52.36710 13.49648 153 ft 17 kts 249°
2026-02-20 05:49 52.36657 13.49437 154 ft 23 kts 248°
2026-02-20 05:50 52.36602 13.49218 154 ft 19 kts 248°
2026-02-20 05:50 52.36544 13.48982 154 ft 25 kts 248°
2026-02-20 05:50 52.36476 13.48699 154 ft 28 kts 251°
2026-02-20 05:50 52.36435 13.48507 154 ft 14 kts 251°
2026-02-20 05:51 52.36484 13.48394 153 ft 12 kts 336°
2026-02-20 05:51 52.36563 13.48345 155 ft 13 kts 340°
2026-02-20 05:51 52.36669 13.48281 158 ft 18 kts 342°
2026-02-20 05:51 52.36731 13.48349 161 ft 9 kts 65°
2026-02-20 05:52 52.36733 13.48356 161 ft 2 kts 65°
2026-02-20 05:52 52.36749 13.48417 161 ft 13 kts 67°
2026-02-20 05:52 52.36825 13.48740 163 ft 59 kts 69°
2026-02-20 05:52 52.37053 13.49713 165 ft 124 kts 68°
2026-02-20 05:53 52.37432 13.51297 320 ft 163 kts 69°
2026-02-20 05:53 52.37821 13.52942 1095 ft 154 kts 69°
2026-02-20 05:53 52.38204 13.54577 1779 ft 152 kts 69°
2026-02-20 05:53 52.38603 13.56272 2154 ft 170 kts 69°
2026-02-20 05:54 52.39064 13.58195 2471 ft 192 kts 69°
2026-02-20 05:54 52.39586 13.60355 2792 ft 215 kts 69°
2026-02-20 05:54 52.40151 13.62706 3373 ft 226 kts 70°
2026-02-20 05:54 52.40728 13.65131 4056 ft 231 kts 70°
2026-02-20 05:55 52.41312 13.67606 4788 ft 234 kts 69°
2026-02-20 05:55 52.41901 13.70108 5504 ft 237 kts 69°
2026-02-20 05:55 52.42497 13.72645 6247 ft 239 kts 69°
2026-02-20 05:55 52.42877 13.74287 6693 ft 240 kts 69°
2026-02-20 05:56 52.43248 13.75892 7129 ft 242 kts 69°
2026-02-20 05:56 52.43849 13.78492 7808 ft 245 kts 69°
2026-02-20 05:56 52.44491 13.81086 8477 ft 247 kts 67°
2026-02-20 05:57 52.45230 13.83647 9171 ft 249 kts 65°
2026-02-20 05:57 52.45990 13.86211 9823 ft 252 kts 64°
2026-02-20 05:57 52.46761 13.88839 10360 ft 259 kts 64°
2026-02-20 05:57 52.47505 13.91397 10886 ft 265 kts 64°
2026-02-20 05:58 52.48306 13.94160 11460 ft 270 kts 64°
2026-02-20 05:58 52.49114 13.96965 12023 ft 275 kts 64°
2026-02-20 05:58 52.49939 13.99833 12585 ft 281 kts 63°
2026-02-20 05:58 52.50778 14.02752 13183 ft 284 kts 63°
2026-02-20 05:59 52.51615 14.05674 13773 ft 287 kts 63°
2026-02-20 05:59 52.52469 14.08656 14334 ft 291 kts 62°
2026-02-20 05:59 52.53277 14.11754 14858 ft 298 kts 67°
2026-02-20 05:59 52.53649 14.15138 15362 ft 309 kts 85°
2026-02-20 06:00 52.53301 14.18673 15810 ft 322 kts 105°
2026-02-20 06:00 52.52177 14.21970 15992 ft 343 kts 126°
2026-02-20 06:00 52.50512 14.24889 16256 ft 357 kts 133°
2026-02-20 06:00 52.48715 14.27808 16525 ft 369 kts 133°
2026-02-20 06:01 52.46875 14.30828 16784 ft 380 kts 133°
2026-02-20 06:01 52.45005 14.33927 17165 ft 386 kts 133°
2026-02-20 06:01 52.43105 14.37103 17579 ft 391 kts 133°
2026-02-20 06:01 52.41191 14.40321 17997 ft 396 kts 133°
2026-02-20 06:02 52.39262 14.43571 18432 ft 400 kts 133°
2026-02-20 06:02 52.37323 14.46847 18891 ft 402 kts 133°
2026-02-20 06:02 52.35362 14.50160 19303 ft 406 kts 134°
2026-02-20 06:02 52.33390 14.53490 19718 ft 410 kts 134°
2026-02-20 06:03 52.31395 14.56855 20132 ft 413 kts 134°
2026-02-20 06:03 52.29386 14.60237 20498 ft 417 kts 134°
2026-02-20 06:03 52.27363 14.63638 20900 ft 420 kts 134°
2026-02-20 06:03 52.25320 14.67070 21309 ft 422 kts 134°
2026-02-20 06:04 52.23331 14.70632 21647 ft 426 kts 130°
2026-02-20 06:04 52.21658 14.74651 22008 ft 429 kts 121°
2026-02-20 06:04 52.20199 14.78898 22374 ft 432 kts 118°
2026-02-20 06:04 52.18821 14.83284 22708 ft 436 kts 116°
2026-02-20 06:05 52.17481 14.87726 23049 ft 439 kts 116°
2026-02-20 06:05 52.16158 14.92148 23395 ft 441 kts 116°
2026-02-20 06:05 52.14804 14.96652 23702 ft 445 kts 116°
2026-02-20 06:05 52.13423 15.01192 24040 ft 448 kts 116°
2026-02-20 06:06 52.12021 15.05740 24338 ft 451 kts 116°
2026-02-20 06:06 52.10598 15.10299 24693 ft 453 kts 117°
2026-02-20 06:06 52.09154 15.14884 25018 ft 456 kts 117°
2026-02-20 06:06 52.07696 15.19480 25351 ft 458 kts 117°
2026-02-20 06:07 52.06229 15.24093 25648 ft 462 kts 117°
2026-02-20 06:07 52.04749 15.28736 25999 ft 464 kts 117°
2026-02-20 06:07 52.03260 15.33398 26347 ft 466 kts 117°
2026-02-20 06:07 52.01761 15.38074 26709 ft 468 kts 118°
2026-02-20 06:08 52.00250 15.42788 27066 ft 471 kts 118°
2026-02-20 06:08 51.98734 15.47515 27445 ft 473 kts 118°
2026-02-20 06:08 51.97220 15.52248 27938 ft 473 kts 118°
2026-02-20 06:09 51.94546 15.60579 28518 ft 479 kts 118°
2026-02-20 06:09 51.89911 15.74776 29499 ft 487 kts 122°
2026-02-20 06:10 51.85966 15.84589 30307 ft 490 kts 126°
2026-02-20 06:10 51.84043 15.89144 30655 ft 492 kts 127°
2026-02-20 06:10 51.82088 15.93713 30960 ft 495 kts 127°
2026-02-20 06:11 51.80112 15.98301 31287 ft 498 kts 127°
2026-02-20 06:11 51.78134 16.02886 31685 ft 499 kts 127°
2026-02-20 06:11 51.76143 16.07500 32002 ft 501 kts 127°
2026-02-20 06:11 51.74151 16.12123 32309 ft 503 kts 127°
2026-02-20 06:12 51.72176 16.16716 32646 ft 504 kts 127°
2026-02-20 06:12 51.70177 16.21366 32952 ft 506 kts 127°
2026-02-20 06:12 51.68146 16.26089 33242 ft 508 kts 127°
2026-02-20 06:12 51.66153 16.30720 33541 ft 509 kts 127°
2026-02-20 06:13 51.64124 16.35431 33807 ft 511 kts 127°
2026-02-20 06:13 51.62102 16.40132 34068 ft 513 kts 127°
2026-02-20 06:13 51.60063 16.44847 34318 ft 515 kts 127°
2026-02-20 06:13 51.58001 16.49598 34549 ft 516 kts 127°
2026-02-20 06:14 51.55946 16.54325 34893 ft 515 kts 127°
2026-02-20 06:14 51.53892 16.59038 35166 ft 516 kts 127°
2026-02-20 06:14 51.51830 16.63761 35427 ft 517 kts 127°
2026-02-20 06:14 51.49765 16.68485 35685 ft 518 kts 127°
2026-02-20 06:15 51.47697 16.73213 35943 ft 518 kts 127°
2026-02-20 06:15 51.45627 16.77948 36176 ft 519 kts 127°
2026-02-20 06:15 51.43549 16.82687 36443 ft 519 kts 127°
2026-02-20 06:15 51.41468 16.87408 36683 ft 519 kts 127°
2026-02-20 06:16 51.39382 16.92125 36972 ft 518 kts 127°
2026-02-20 06:16 51.37324 16.96763 37301 ft 515 kts 127°
2026-02-20 06:16 51.35250 17.01433 37595 ft 514 kts 127°
2026-02-20 06:16 51.33181 17.06083 37834 ft 514 kts 127°
2026-02-20 06:17 51.31052 17.10663 37995 ft 514 kts 130°
2026-02-20 06:17 51.28677 17.14929 38146 ft 514 kts 134°
2026-02-20 06:17 51.26236 17.19068 38374 ft 513 kts 135°
2026-02-20 06:17 51.23748 17.23169 38562 ft 513 kts 136°
2026-02-20 06:18 51.21236 17.27244 38721 ft 514 kts 136°
2026-02-20 06:18 51.18715 17.31304 38882 ft 515 kts 136°
2026-02-20 06:18 51.16196 17.35352 39071 ft 515 kts 136°
2026-02-20 06:18 51.13671 17.39413 39221 ft 516 kts 136°
2026-02-20 06:19 51.08609 17.47562 39266 ft 518 kts 136°
2026-02-20 06:19 51.03549 17.55700 39249 ft 517 kts 136°
2026-02-20 06:20 50.99342 17.62446 39248 ft 517 kts 136°
2026-02-20 06:20 50.93448 17.71861 39240 ft 516 kts 136°
2026-02-20 06:21 50.88387 17.79917 39239 ft 515 kts 136°
2026-02-20 06:21 50.83318 17.87961 39229 ft 515 kts 136°
2026-02-20 06:22 50.78260 17.95960 39227 ft 514 kts 137°
2026-02-20 06:22 50.73034 18.04202 39218 ft 513 kts 137°
2026-02-20 06:23 50.68006 18.12101 39219 ft 513 kts 137°
2026-02-20 06:23 50.62945 18.20025 39215 ft 513 kts 137°
2026-02-20 06:24 50.57877 18.27937 39209 ft 512 kts 137°
2026-02-20 06:24 50.52845 18.35770 39215 ft 511 kts 137°
2026-02-20 06:25 50.47776 18.43632 39213 ft 511 kts 137°
2026-02-20 06:25 50.42716 18.51455 39197 ft 511 kts 137°
2026-02-20 06:26 50.37637 18.59285 39200 ft 512 kts 137°